星链-34684 (STARLINK-34684)

导读

STARLINK-34684是美国于2025年7月19日发射的星链卫星,隶属于SpaceX公司的星链计划。星链计划旨在构建全球卫星互联网星座,为全球偏远地区、海洋等网络覆盖薄弱区域提供高速互联网接入服务。该卫星入轨后将和其他星链卫星组网,进一步完善星链星座的覆盖能力与服务性能。

Basic Information
目录编号:
64862
目录名称:
STARLINK-34684
国际标识:
2025-152W
轨道中心:
EARTH
卫星名称:
星链-34684
卫星全名:
星链-34684 (STARLINK-34684)
卫星状态:
在轨 (已飞行329 天)
发射日期:
2025-07-19 UTC
国别 :
美国 (US)
星等 :
--
Orbit Information
数据来源 国际轨道数据 AOE轨道数据
星历时间 2026-06-13T22:44:23+0800
8小时前
查看轨道信息
2026-06-11T00:00:00+0800
3天前
查看轨道信息
半长轴 6927.627km 6927.633km
偏心率 0.0001779 0.0001836
轨道倾角 97.365° 97.378°
近地点辐角 84.462° 84.064°
升交点赤经 19.224° 16.403°
平近点角 275.681° 149.788°
近地点 548.257km 548.224km
远地点 550.723km 550.768km
周期 95.639分钟 95.639分钟
每日圈数 15.056572 15.056552
Detailed Information
固有亮度:
5
最大亮度:
2.5
卫星平台:
Starlink V1.0
覆盖范围:
全球
运营商:
太空探索技术公司
运营商所在国:
美国
制造商(研发单位):
太空探索技术公司
制造商所在国:
美国
使用方式:
暂无
Satellite Introduction
Starlink 计划是 SpaceX 推出的全球卫星互联网项目,通过发射低轨道卫星,为全球尤其是偏远地区提供高速、低延迟的互联网服务。自 2019 年起,Starlink 已部署数千颗卫星,旨在缩小全球数字鸿沟,推动互联网普及。该项目还为军事、航空等行业提供通信支持,带来广泛经济效益。
2D Orbit Map
3D Orbit Map
Orbit Altitude Analysis Chart
Orbit Inclination Analysis Chart
Orbit Comprehensive Analysis Chart
View Comprehensive Chart